• In Hungary
  • List of Countries
  • For 7 days
  • Water Temperature
  • Satellite Maps
  • Weather Map
  • News
  • Weather Widgets
  • user-avatar
    Login

    Hourly Weather Zdzieszyn

    Today, 21 August, Tuesday

    Time Temperature Precipitation Wind Pressure Humidity
    00:00 +20°C° 0 mm 3 mps 747 mmHg 78%
    01:00 +19°C° 0 mm 2 mps 747 mmHg 81%
    02:00 +19°C° 0 mm 2 mps 748 mmHg 81%
    03:00 +19°C° 0 mm 3 mps 748 mmHg 82%
    04:00 +18°C° 0 mm 3 mps 748 mmHg 83%
    05:00 +19°C° 0 mm 3 mps 748 mmHg 78%
    06:00 +19°C° 0 mm 3 mps 749 mmHg 74%
    07:00 +20°C° 0 mm 4 mps 749 mmHg 70%
    08:00 +21°C° 0 mm 4 mps 749 mmHg 65%
    09:00 +22°C° 0 mm 4 mps 749 mmHg 60%
    10:00 +23°C° 0 mm 5 mps 749 mmHg 55%
    11:00 +23°C° 0 mm 5 mps 749 mmHg 53%
    12:00 +25°C° 0 mm 5 mps 749 mmHg 51%
    13:00 +25°C° 0 mm 5 mps 749 mmHg 49%
    14:00 +25°C° 0 mm 5 mps 749 mmHg 48%
    15:00 +25°C° 0 mm 4 mps 749 mmHg 47%
    16:00 +25°C° 0 mm 4 mps 749 mmHg 46%
    17:00 +22°C° 0 mm 3 mps 750 mmHg 51%
    18:00 +21°C° 0 mm 3 mps 750 mmHg 55%
    19:00 +19°C° 0 mm 2 mps 750 mmHg 60%
    20:00 +19°C° 0 mm 2 mps 750 mmHg 62%
    21:00 +18°C° 0 mm 2 mps 750 mmHg 64%
    22:00 +17°C° 0 mm 2 mps 751 mmHg 66%
    23:00 +16°C° 0 mm 2 mps 751 mmHg 70%

    Tomorrow, 22 August, Wednesday

    Time Temperature Precipitation Wind Pressure Humidity
    00:00 +15°C° 0 mm 2 mps 751 mmHg 73%
    01:00 +15°C° 0 mm 2 mps 751 mmHg 76%
    02:00 +14°C° 0 mm 2 mps 752 mmHg 79%
    03:00 +14°C° 0 mm 2 mps 752 mmHg 82%
    04:00 +14°C° 0 mm 2 mps 752 mmHg 85%
    05:00 +15°C° 0 mm 2 mps 752 mmHg 80%
    06:00 +16°C° 0 mm 2 mps 752 mmHg 76%
    07:00 +17°C° 0 mm 2 mps 752 mmHg 71%
    08:00 +19°C° 0 mm 2 mps 752 mmHg 65%
    09:00 +20°C° 0 mm 2 mps 752 mmHg 58%
    10:00 +23°C° 0 mm 2 mps 752 mmHg 51%
    11:00 +24°C° 0 mm 2 mps 752 mmHg 47%
    12:00 +25°C° 0 mm 2 mps 752 mmHg 44%
    13:00 +26°C° 0 mm 2 mps 751 mmHg 40%
    14:00 +26°C° 0 mm 2 mps 751 mmHg 40%
    15:00 +26°C° 0 mm 2 mps 751 mmHg 40%
    16:00 +26°C° 0 mm 2 mps 750 mmHg 39%
    17:00 +24°C° 0 mm 2 mps 750 mmHg 44%
    18:00 +23°C° 0 mm 2 mps 750 mmHg 49%
    19:00 +20°C° 0 mm 2 mps 750 mmHg 53%
    20:00 +19°C° 0 mm 2 mps 750 mmHg 56%
    21:00 +19°C° 0 mm 2 mps 750 mmHg 59%
    22:00 +18°C° 0 mm 3 mps 750 mmHg 62%
    23:00 +17°C° 0 mm 3 mps 750 mmHg 67%

    Day after tomorrow, 23 August, Thursday

    Time Temperature Precipitation Wind Pressure Humidity
    00:00 +17°C° 0 mm 3 mps 750 mmHg 71%
    01:00 +17°C° 0 mm 3 mps 750 mmHg 76%
    02:00 +16°C° 0 mm 3 mps 750 mmHg 78%
    03:00 +16°C° 0 mm 3 mps 749 mmHg 81%
    04:00 +16°C° 0 mm 3 mps 749 mmHg 83%
    05:00 +17°C° 0 mm 3 mps 749 mmHg 79%
    06:00 +18°C° 0 mm 3 mps 749 mmHg 75%
    07:00 +19°C° 0 mm 3 mps 749 mmHg 71%
    08:00 +21°C° 0 mm 3 mps 749 mmHg 64%
    09:00 +23°C° 0 mm 4 mps 748 mmHg 58%
    10:00 +26°C° 0 mm 4 mps 748 mmHg 51%
    11:00 +27°C° 0 mm 3 mps 748 mmHg 48%
    12:00 +28°C° 0 mm 3 mps 748 mmHg 45%
    13:00 +29°C° 0 mm 3 mps 747 mmHg 42%
    14:00 +29°C° 0 mm 2 mps 747 mmHg 42%
    15:00 +29°C° 0 mm 2 mps 746 mmHg 42%
    16:00 +29°C° 0 mm 2 mps 746 mmHg 42%
    17:00 +28°C° 0 mm 2 mps 746 mmHg 47%
    18:00 +26°C° 0 mm 3 mps 746 mmHg 52%
    19:00 +25°C° 0 mm 3 mps 746 mmHg 57%
    20:00 +24°C° 0 mm 3 mps 746 mmHg 60%
    21:00 +22°C° 0 mm 3 mps 746 mmHg 63%
    22:00 +22°C° 0 mm 4 mps 746 mmHg 66%
    23:00 +21°C° 0.1 mm 4 mps 745 mmHg 68%

    24 August, Friday

    Time Temperature Precipitation Wind Pressure Humidity
    00:00 +21°C° 0.1 mm 4 mps 745 mmHg 71%
    01:00 +21°C° 0.1 mm 4 mps 745 mmHg 73%
    02:00 +20°C° 0.1 mm 3 mps 745 mmHg 76%
    03:00 +20°C° 0.1 mm 3 mps 744 mmHg 78%
    04:00 +20°C° 0.1 mm 3 mps 744 mmHg 81%
    05:00 +21°C° 0.4 mm 3 mps 744 mmHg 78%
    06:00 +22°C° 0.4 mm 3 mps 744 mmHg 76%
    07:00 +23°C° 0.4 mm 4 mps 743 mmHg 73%
    08:00 +26°C° 0.1 mm 4 mps 743 mmHg 66%
    09:00 +28°C° 0.1 mm 4 mps 743 mmHg 59%
    10:00 +30°C° 0.1 mm 4 mps 743 mmHg 51%
    11:00 +32°C° 0 mm 4 mps 742 mmHg 47%
    12:00 +33°C° 0 mm 4 mps 742 mmHg 43%
    13:00 +34°C° 0 mm 5 mps 742 mmHg 38%
    14:00 +33°C° 0 mm 4 mps 741 mmHg 41%
    15:00 +32°C° 0 mm 4 mps 741 mmHg 44%
    16:00 +30°C° 0 mm 4 mps 741 mmHg 47%
    17:00 +29°C° 0.5 mm 4 mps 740 mmHg 52%
    18:00 +27°C° 0.5 mm 3 mps 740 mmHg 57%
    19:00 +26°C° 0.5 mm 3 mps 740 mmHg 61%
    20:00 +25°C° 0.7 mm 3 mps 741 mmHg 69%
    21:00 +24°C° 0.7 mm 3 mps 741 mmHg 76%
    22:00 +21°C° 0.7 mm 2 mps 741 mmHg 84%
    23:00 +21°C° 0.2 mm 2 mps 741 mmHg 85%

    25 August, Saturday

    Time Temperature Precipitation Wind Pressure Humidity
    00:00 +21°C° 0.2 mm 2 mps 741 mmHg 87%
    01:00 +20°C° 0.2 mm 2 mps 741 mmHg 89%
    02:00 +20°C° 0.3 mm 2 mps 741 mmHg 90%
    03:00 +20°C° 0.3 mm 2 mps 741 mmHg 91%
    04:00 +19°C° 0.3 mm 3 mps 741 mmHg 92%
    05:00 +19°C° 0.4 mm 3 mps 742 mmHg 91%
    06:00 +19°C° 0.4 mm 3 mps 742 mmHg 90%
    07:00 +19°C° 0.4 mm 4 mps 742 mmHg 89%
    08:00 +19°C° 0.1 mm 4 mps 743 mmHg 85%
    09:00 +19°C° 0.1 mm 4 mps 743 mmHg 82%
    10:00 +19°C° 0.1 mm 4 mps 743 mmHg 79%
    11:00 +19°C° 0.4 mm 4 mps 743 mmHg 79%
    12:00 +18°C° 0.4 mm 4 mps 743 mmHg 80%
    13:00 +18°C° 0.4 mm 4 mps 743 mmHg 80%
    14:00 +17°C° 0.6 mm 4 mps 743 mmHg 82%
    15:00 +17°C° 0.6 mm 4 mps 743 mmHg 84%
    16:00 +15°C° 0.6 mm 4 mps 743 mmHg 86%
    17:00 +15°C° 0.3 mm 4 mps 743 mmHg 87%
    18:00 +15°C° 0.3 mm 4 mps 743 mmHg 88%
    19:00 +14°C° 0.3 mm 4 mps 743 mmHg 89%
    20:00 +14°C° 0.3 mm 4 mps 743 mmHg 90%
    21:00 +14°C° 0.3 mm 4 mps 743 mmHg 90%
    22:00 +14°C° 0.3 mm 4 mps 743 mmHg 91%
    23:00 +14°C° 1 mm 4 mps 742 mmHg 92%

    26 August, Sunday

    Time Temperature Precipitation Wind Pressure Humidity
    00:00 +14°C° 1 mm 4 mps 742 mmHg 92%
    01:00 +14°C° 1 mm 4 mps 742 mmHg 92%
    02:00 +14°C° 0.6 mm 5 mps 742 mmHg 92%
    03:00 +14°C° 0.6 mm 5 mps 742 mmHg 92%
    04:00 +14°C° 0.6 mm 5 mps 741 mmHg 92%
    05:00 +13°C° 0.5 mm 5 mps 741 mmHg 92%
    06:00 +13°C° 0.5 mm 5 mps 741 mmHg 92%
    07:00 +13°C° 0.5 mm 5 mps 741 mmHg 92%
    08:00 +13°C° 0.5 mm 5 mps 741 mmHg 91%
    09:00 +13°C° 0.5 mm 5 mps 741 mmHg 90%
    10:00 +14°C° 0.5 mm 5 mps 741 mmHg 90%
    11:00 +14°C° 1 mm 5 mps 741 mmHg 90%
    12:00 +13°C° 1 mm 6 mps 741 mmHg 90%
    13:00 +13°C° 1 mm 6 mps 741 mmHg 90%
    14:00 +13°C° 0.3 mm 6 mps 742 mmHg 90%
    15:00 +13°C° 0.3 mm 6 mps 742 mmHg 89%
    16:00 +11°C° 0.3 mm 6 mps 742 mmHg 88%
    17:00 +11°C° 0.1 mm 6 mps 742 mmHg 89%
    18:00 +12°C° 0.1 mm 5 mps 743 mmHg 90%
    19:00 +12°C° 0.1 mm 5 mps 743 mmHg 90%
    20:00 +12°C° 0 mm 5 mps 743 mmHg 91%
    21:00 +12°C° 0 mm 5 mps 743 mmHg 91%
    22:00 +12°C° 0 mm 5 mps 744 mmHg 91%
    23:00 +12°C° 0 mm 5 mps 744 mmHg 91%
    Show more